This is the latest recevied weather packets stored in our database for station/object IZ5MJO-13. If no packets are shown the sender has not sent any weather packets the latest 1 day(s).
| Time | Temp. | Humidity | Pressure | Rain* | Wind** | Luminosity | Snow |
|---|---|---|---|---|---|---|---|
| 1778059734 | 16.11° C | 79% | 1001.3 hPa | - | - | - | - |
| 1778058834 | 15° C | 75% | 1001.2 hPa | - | - | - | - |
| 1778057033 | 13.89° C | 77% | 1001.5 hPa | - | - | - | - |
| 1778056132 | 14.44° C | 76% | 1001.5 hPa | - | - | - | - |
| 1778055238 | 14.44° C | 79% | 1001.2 hPa | - | - | - | - |
| 1778054338 | 14.44° C | 81% | 1001 hPa | - | - | - | - |
| 1778052537 | 13.89° C | 81% | 1000.9 hPa | - | - | - | - |
| 1778051637 | 13.33° C | 83% | 1000.8 hPa | - | - | - | - |
| 1778050737 | 13.33° C | 81% | 1000.8 hPa | - | - | - | - |
| 1778048936 | 12.78° C | 83% | 1000.6 hPa | - | - | - | - |
| 1778048036 | 12.78° C | 82% | 1000.7 hPa | - | - | - | - |
| 1778047136 | 12.78° C | 83% | 1000.7 hPa | - | - | - | - |
| 1778045335 | 12.78° C | 84% | 1000.8 hPa | - | - | - | - |
| 1778044435 | 12.78° C | 83% | 1000.7 hPa | - | - | - | - |
| 1778041734 | 12.22° C | 83% | 1000.6 hPa | - | - | - | - |
| 1778040834 | 12.22° C | 84% | 1000.8 hPa | - | - | - | - |
| 1778039933 | 12.22° C | 85% | 1000.9 hPa | - | - | - | - |
| 1778038132 | 12.22° C | 81% | 1000.9 hPa | - | - | - | - |
| 1778036332 | 12.22° C | 81% | 1001.1 hPa | - | - | - | - |
| 1778035431 | 12.78° C | 82% | 1001.1 hPa | - | - | - | - |
| 1778034531 | 12.78° C | 81% | 1000.9 hPa | - | - | - | - |
| 1778033637 | 12.78° C | 82% | 1000.8 hPa | - | - | - | - |
| 1778032736 | 12.78° C | 83% | 1001 hPa | - | - | - | - |
| 1778031836 | 12.78° C | 83% | 1001.1 hPa | - | - | - | - |
| 1778030936 | 12.78° C | 81% | 1001.3 hPa | - | - | - | - |
* Rain since midnight (hover to see other rain measurements)
** Current wind speed in m/s (hover to see current wind gust speed)